Flag for Greenland Weather past 2 weeks in Danmarkshavn, Greenland

Now
27 °F

Clear.


Feels Like: 15 °F
Forecast: 14 / 20 °F
Wind: 15 mph from Northwest

Location: Danmarkshavn

Current Time: Sep 19, 2014 at 6:26:44 AM

Latest Report: Sep 19, 2014 at 5:00 AM


Visibility: 31 mi

Pressure: 30.03 "Hg

Humidity: 54%

Dew point: 12 °F

Location of DanmarkshavnLocation

Historic Weather in Danmarkshavn — Graph

°F

Danmarkshavn temperature yesterday

Maximum temperature yesterday: 34 °F (at 3:00 PM)
Minimum temperature yesterday: 29 °F (at 12:00 AM)
Average temperature yesterday: 32 °F

Past Weeks' High & Low Weather Summary

 TemperatureHumidityPressure
High35 °F (Sep 4, 5:00 PM)99% (Sep 12, 5:00 PM)30.12 "Hg (Sep 12, 5:00 PM)
Low23 °F (Sep 9, 6:00 AM)41% (Sep 7, 12:00 PM)29.23 "Hg (Sep 12, 11:00 PM)
Average29 °F69%29.73 "Hg
* Reported Sep 4 3:00 AM — Sep 19 3:00 AM, Danmarkshavn, Weather by CustomWeather, © 2014

Note: Actual official high and low records may vary slightly from our data, if they occured in-between our weather recording intervals... More about our weather records

Advertising

Danmarkshavn weather history for previous 24 hours

 ConditionsComfort  
Time TempWeatherWind HumidityBarometerVisibility
3:00 AM
Sep 19
29 °FClear.16 mph47%30.02 "Hg31 mi
12:00 AM29 °FPassing clouds.9 mph51%30.05 "Hg31 mi
9:00 PM
Sep 18
30 °FClear.9 mph52%30.08 "Hg31 mi
8:00 PM31 °FClear.12 mph51%30.08 "Hg31 mi
7:00 PM31 °FSunny.1 mph61%30.09 "Hg31 mi
6:00 PM33 °FSunny.10 mph63%30.09 "Hg31 mi
3:00 PM34 °FSunny.20 mph52%30.09 "Hg28 mi
2:00 PM33 °FSunny.17 mph66%30.09 "Hg22 mi
1:00 PM33 °FSunny.21 mph71%30.09 "Hg25 mi
12:00 PM33 °FSunny.8 mph55%30.11 "Hg28 mi
11:00 AM32 °FSunny.13 mph63%30.10 "Hg28 mi
10:00 AM32 °FSunny.16 mph58%30.10 "Hg31 mi
9:00 AM31 °FSunny.13 mph57%30.11 "Hg31 mi
8:00 AM32 °FSunny.20 mph50%30.10 "Hg31 mi
7:00 AM33 °FSunny.6 mph49%30.12 "Hg31 mi
6:00 AM32 °FClear.16 mph48%30.10 "Hg31 mi
Weather by CustomWeather, © 2014

See weather overviewHow to use our weather pages